Home > Weather > Chandler > Past weeks

Flag for USA Past Weather in Chandler, Arizona, USA — Yesterday and Last 2 Weeks

Now
91 °F

Clear.


Feels Like: 89 °F
Forecast: 89 / 111 °F
Wind: 10 mph from North

Location: Williams Gateway Airport

Current Time: Jul 23, 2016 at 2:23:05 AM

Latest Report: Jul 23, 2016 at 1:55 AM


Visibility: 10 mi

Pressure: 29.84 "Hg

Humidity: 28%

Dew Point: 54 °F

Location of ChandlerLocation

Past Weather in Chandler — Graph

°F

Chandler Temperature Yesterday

Maximum temperature yesterday: 109 °F (at 4:55 PM)
Minimum temperature yesterday: 88 °F (at 6:50 AM)
Average temperature yesterday: 96 °F

High & Low Weather Summary for the Past Weeks

 TemperatureHumidityPressure
High109 °F (Jul 22, 4:55 PM)74% (Jul 19, 5:49 AM)30.04 "Hg (Jul 19, 5:49 AM)
Low75 °F (Jul 13, 4:15 AM)8% (Jul 10, 2:47 PM)29.71 "Hg (Jul 10, 6:58 PM)
Average91 °F28%29.89 "Hg
* Reported Jul 8 1:15 AM — Jul 23 1:15 AM, Chandler, Weather by CustomWeather, © 2016

Note: Actual official high and low records may vary slightly from our data, if they occured in-between our weather recording intervals... More about our weather records

Advertising

Chandler Weather History for the Previous 24 Hours

Scroll right to see more
 ConditionsComfort  
Time TempWeatherWind HumidityBarometerVisibility
1:15 AM
Sat, Jul 23
91 °FClear.7 mph28%29.84 "Hg10 mi
12:55 AM91 °FClear.3 mph28%29.85 "Hg10 mi
12:35 AM91 °FClear.7 mph28%29.85 "Hg10 mi
12:15 AM93 °FClear.No wind24%29.85 "Hg10 mi
11:57 PM
Fri, Jul 22
97 °FClear.No wind22%29.85 "Hg20 mi
9:47 PM100 °FClear.6 mph20%29.85 "Hg20 mi
8:47 PM100 °FClear.12 mph21%29.84 "Hg20 mi
7:47 PM100 °FPartly cloudy.20 mph22%29.83 "Hg20 mi
6:52 PM108 °FExtremely hot.18 mph17%29.82 "Hg45 mi
5:50 PM108 °FScattered clouds.No wind17%29.80 "Hg45 mi
4:55 PM109 °FScattered clouds.No wind16%29.82 "Hg45 mi
3:47 PM108 °FScattered clouds.5 mph18%29.85 "Hg45 mi
2:50 PM108 °FScattered clouds.7 mph18%29.87 "Hg45 mi
1:49 PM106 °FScattered clouds.12 mph19%29.90 "Hg45 mi
12:47 PM104 °FBroken clouds.7 mph20%29.93 "Hg30 mi
11:49 AM104 °FScattered clouds.7 mph20%29.96 "Hg30 mi
10:47 AM100 °FScattered clouds.7 mph22%29.97 "Hg45 mi
9:54 AM99 °FScattered clouds.7 mph25%29.98 "Hg45 mi
8:47 AM95 °FScattered clouds.5 mph30%30.00 "Hg35 mi
7:47 AM90 °FPartly sunny.5 mph38%29.99 "Hg45 mi
6:50 AM88 °FPartly sunny.8 mph38%29.99 "Hg45 mi
5:57 AM90 °FBroken clouds.10 mph33%29.98 "Hg30 mi
4:47 AM90 °FPartly cloudy.7 mph33%29.97 "Hg4 mi
4:35 AM90 °FClear.18 mph33%29.97 "Hg5 mi
4:15 AM90 °FPassing clouds.12 mph36%29.97 "Hg10 mi
3:55 AM90 °FPassing clouds.14 mph36%29.96 "Hg10 mi
3:35 AM90 °FPassing clouds.9 mph36%29.94 "Hg10 mi
3:15 AM91 °FClear.10 mph34%29.93 "Hg10 mi
2:55 AM91 °FClear.10 mph34%29.93 "Hg10 mi
2:35 AM91 °FClear.13 mph34%29.93 "Hg10 mi
2:15 AM90 °FClear.10 mph36%29.93 "Hg10 mi
Weather by CustomWeather, © 2016

See weather overviewHow to use our weather pages